[[{"header":{"parameterUnit":"m.s-1","parameterCategory":1,"la1":30.2991,"la2":30.254,"lo1":-89.0895,"lo2":-89.0444,"dy":0.0017,"dx":0.0017,"nx":28,"ny":28,"refTime":"2024-03-21T09:00:00:Z","depth":0,"parameterNumber":2,"parameterNumberName":"U-component_of_WINDS"},"data":[0,0,0,0,0,0,0,0,0,0,0,0,0,0,0,0,0,0,0,0,0,0,0,0,0,0,0,0,0,0,0,0,0,0,0,0,0,0,0,0,0,0,0,0,0,0,0,0,0,0,0,0,0,0,0,0,0,0,-5.1027,-5.1027,0,-5.1077,-5.1078,-5.1079,-5.1024,-5.1022,-5.102,-5.1018,-5.1066,-5.107,-5.1073,0,0,0,0,0,0,0,0,0,0,0,0,0,-5.0879,-5.0882,-5.1026,-5.1027,-5.1028,-5.1077,-5.1078,-5.1079,-5.1025,-5.1022,-5.102,-5.1017,-5.1065,-5.1069,-5.1073,0,0,0,0,0,0,0,0,0,0,0,0,0,-5.0938,-5.0883,-5.1026,-5.1007,-5.1006,-5.1077,-5.1078,-5.1079,-5.1025,-5.1022,-5.1019,-5.1016,-5.1064,-5.1069,-5.1074,-5.1166,0,0,-5.1088,-5.109,0,0,0,0,0,0,0,0,-5.0934,-5.0943,-5.1009,-5.1008,-5.1007,-5.1042,-5.1044,-5.1108,-5.1026,-5.1018,-5.1018,-5.1015,-5.106,-5.1065,-5.1082,-5.1168,-5.117,-5.1089,-5.1092,-5.1094,-5.1095,0,0,0,0,0,0,0,-5.093,-5.0941,-5.1046,-5.101,-5.1009,-5.0994,-5.0999,-5.1056,-5.1056,-5.1018,-5.1014,-5.1021,-5.1059,-5.1077,-5.1082,-5.1171,-5.1089,-5.1093,-5.1096,-5.1098,-5.1333,-5.1337,0,0,0,0,0,0,-5.0929,-5.0938,-5.1045,-5.1048,-5.0963,-5.1,-5.1005,-5.1034,-5.1055,-5.1055,-5.1024,-5.1019,-5.107,-5.1077,-5.1084,-5.1191,-5.1094,-5.1098,-5.1101,-5.133,-5.1334,-5.1338,0,0,0,0,0,0,-5.0926,-5.0939,-5.1043,-5.0992,-5.1004,-5.1006,-5.1038,-5.1036,-5.1054,-5.1059,-5.1059,-5.1042,-5.1068,-5.1077,-5.1146,-5.1192,-5.11,-5.1105,-5.1326,-5.1331,-5.1336,-5.1407,0,0,0,0,0,0,-5.0922,-5.0938,-5.0974,-5.0993,-5.1007,-5.1105,-5.1041,-5.1039,-5.1063,-5.1056,-5.1076,-5.1077,-5.1066,-5.1139,-5.115,-5.1197,-5.1109,-5.1322,-5.1328,-5.1334,-5.14,-5.1414,-5.1425,0,0,0,0,0,-5.0917,-5.0991,-5.0976,-5.0989,-5.1052,-5.1108,-5.1115,-5.1103,-5.1067,-5.1102,-5.1106,-5.1076,-5.1186,-5.1146,-5.1159,-5.1207,-5.1319,-5.1327,-5.1334,-5.1395,-5.1411,-5.1425,0,0,0,0,0,0,-5.0976,-5.0993,-5.0977,-5.106,-5.1083,-5.1098,-5.1142,-5.1121,-5.1153,-5.1146,-5.1128,-5.1133,-5.1206,-5.1214,-5.1169,-5.1297,-5.1246,-5.1257,-5.1288,-5.1304,-5.1316,-5.1311,-5.1113,0,0,0,0,0,-5.0999,-5.1044,-5.1057,-5.1129,-5.1141,-5.114,-5.1164,-5.1153,-5.1175,-5.1184,-5.1193,-5.1215,-5.1254,-5.128,-5.1317,-5.1403,-5.1405,-5.1443,-5.1455,-5.1465,-5.1473,-5.1518,-5.1534,-5.1363,-5.1363,-5.1362,0,0,-5.1046,-5.1061,-5.109,-5.1141,-5.1157,-5.1203,-5.1148,-5.1199,-5.1232,-5.1192,-5.1256,-5.1264,-5.1287,-5.1365,-5.1399,-5.1374,-5.1522,-5.1475,-5.1483,-5.1485,-5.1527,-5.1543,-5.1558,-5.1368,-5.1367,-5.1366,0,0,-5.1154,-5.1172,-5.1232,-5.1251,-5.1277,-5.1276,-5.1291,-5.1311,-5.1314,-5.138,-5.135,-5.1389,-5.1458,-5.1475,-5.1493,-5.161,-5.1583,-5.1623,-5.1686,-5.173,-5.1743,-5.1755,-5.1794,-5.1808,-5.1632,-5.1632,-5.1632,0,-5.1208,-5.1277,-5.1266,-5.1319,-5.1341,-5.1309,-5.137,-5.1388,-5.1425,-5.144,-5.1412,-5.1497,-5.1511,-5.1591,-5.162,-5.1636,-5.1651,-5.1618,-5.1743,-5.1754,-5.1765,-5.1802,-5.1817,-5.1636,-5.1636,-5.1635,-5.1635,0,-5.1341,-5.1389,-5.1435,-5.1473,-5.1501,-5.1558,-5.1554,-5.1584,-5.1571,-5.1573,-5.164,-5.1656,-5.1694,-5.1713,-5.1701,-5.1792,-5.1775,-5.1746,-5.1693,-5.1786,-5.182,-5.1834,-5.1643,-5.1641,-5.164,-5.1639,0,0,-5.1483,-5.1516,-5.1533,-5.1549,-5.1577,-5.1613,-5.1669,-5.1708,-5.1733,-5.176,-5.1804,-5.1864,-5.1837,-5.1858,-5.1848,-5.1886,-5.1975,-5.1852,-5.1852,-5.1871,-5.2073,-5.2092,-5.2109,-5.196,-5.1962,-5.1965,-5.207,0,-5.159,-5.1686,-5.1679,-5.1769,-5.1813,-5.1784,-5.1832,-5.1854,-5.1858,-5.1894,-5.1898,-5.194,-5.1903,-5.1915,-5.1952,-5.1956,-5.2015,-5.1949,-5.1998,-5.1999,-5.1988,-5.2127,-5.2148,-5.2246,-5.2084,-5.2086,-5.2088,0,-5.1725,-5.1759,-5.1854,-5.1875,-5.1893,-5.1936,-5.1971,-5.2008,-5.2032,-5.2032,-5.2056,-5.204,-5.2094,-5.2044,-5.2118,-5.2073,-5.2093,-5.2099,-5.2102,-5.2103,-5.2046,-5.2128,-5.2278,-5.2291,-5.2109,-5.2108,-5.2106,0,-5.1815,-5.1885,-5.195,-5.1965,-5.1993,-5.2023,-5.2036,-5.2058,-5.2082,-5.2113,-5.2128,-5.2165,-5.2184,-5.2213,-5.2206,-5.2171,-5.228,-5.2231,-5.2279,-5.228,-5.23,-5.2298,-5.2451,-5.232,-5.232,-5.232,-5.2319,0,-5.1932,-5.1991,-5.1991,-5.203,-5.2095,-5.2087,-5.215,-5.2159,-5.2179,-5.2219,-5.2198,-5.2235,-5.2227,-5.2264,-5.226,-5.232,-5.2329,-5.2329,-5.2326,-5.2329,-5.2328,-5.2338,-5.233,-5.2323,-5.2323,-5.2322,-5.2321,0,-5.2042,-5.2045,-5.2113,-5.2135,-5.2142,-5.2188,-5.2205,-5.2242,-5.2246,-5.2297,-5.2308,-5.2313,-5.2356,-5.2354,-5.2403,-5.24,-5.2473,-5.2464,-5.2464,-5.2461,-5.2509,-5.2503,-5.267,-5.2691,-5.255,-5.2552,-5.2553,0,-5.2114,-5.2158,-5.2185,-5.2211,-5.2226,-5.2269,-5.2294,-5.2288,-5.2315,-5.2346,-5.2379,-5.2421,-5.2453,-5.2523,-5.2529,-5.2566,-5.2556,-5.2612,-5.2561,-5.2561,-5.2552,-5.2548,-5.2551,-5.2621,-5.2622,-5.2623,-5.2625,0,-5.2241,-5.224,-5.2278,-5.2317,-5.2347,-5.2377,-5.2404,-5.2426,-5.2424,-5.2455,-5.2499,-5.2524,-5.2575,-5.2615,-5.2651,-5.2662,-5.2642,-5.2642,-5.2654,-5.2654,-5.2651,-5.265,-5.2487,-5.2636,-5.2635,-5.2634,-5.2634,-5.2633,-5.2331,-5.2369,-5.2394,-5.2436,-5.2457,-5.2483,-5.2518,-5.2528,-5.2565,-5.2606,-5.2601,-5.265,-5.2673,-5.2719,-5.2734,-5.2771,-5.2751,-5.277,-5.2774,-5.2778,-5.2782,-5.265,-5.2778,-5.2778,-5.2778,-5.2778,-5.2777,0,-5.2453,-5.2469,-5.2509,-5.2548,-5.2581,-5.2563,-5.2593,-5.2621,-5.2665,-5.2689,-5.2722,-5.2773,-5.2812,-5.2824,-5.2862,-5.2889,-5.2881,-5.2899,-5.2895,-5.2897,-5.2799,-5.2783,-5.2905,-5.2905,-5.2905,-5.2905,-5.2905,-5.2905,-5.2521,-5.2583,-5.2586,-5.2658,-5.2673,-5.2722,-5.274,-5.2763,-5.2782,-5.284,-5.2874,-5.2882,-5.2901,-5.294,-5.2975,-5.2978,-5.2991,-5.3012,-5.301,-5.2917,-5.2904,-5.2892,-5.2876,-5.3016,-5.3016,-5.3104,-5.3105,-5.3105]},{"header":{"parameterUnit":"m.s-1","parameterCategory":1,"la1":30.2991,"la2":30.254,"lo1":-89.0895,"lo2":-89.0444,"dy":0.0017,"dx":0.0017,"nx":28,"ny":28,"refTime":"2024-03-21T09:00:00:Z","depth":0,"parameterNumber":3,"parameterNumberName":"V-component_of_WINDS"},"data":[0,0,0,0,0,0,0,0,0,0,0,0,0,0,0,0,0,0,0,0,0,0,0,0,0,0,0,0,0,0,0,0,0,0,0,0,0,0,0,0,0,0,0,0,0,0,0,0,0,0,0,0,0,0,0,0,0,0,0.4415,0.4415,0,0.4401,0.4401,0.4401,0.4345,0.4344,0.4343,0.4341,0.433,0.433,0.4331,0,0,0,0,0,0,0,0,0,0,0,0,0,0.4396,0.4397,0.4415,0.4414,0.4414,0.4401,0.4401,0.4401,0.4345,0.4344,0.4342,0.4341,0.4329,0.433,0.4331,0,0,0,0,0,0,0,0,0,0,0,0,0,0.4395,0.4397,0.4415,0.4385,0.4382,0.4401,0.4401,0.4401,0.4346,0.4344,0.4342,0.434,0.4329,0.433,0.4332,0.4378,0,0,0.4336,0.4336,0,0,0,0,0,0,0,0,0.4396,0.4396,0.439,0.4387,0.4384,0.4373,0.439,0.4393,0.4346,0.436,0.4341,0.4339,0.4346,0.4345,0.4347,0.4378,0.4377,0.4336,0.4336,0.4337,0.4337,0,0,0,0,0,0,0,0.4396,0.4396,0.4409,0.439,0.4386,0.4374,0.4371,0.439,0.4364,0.4358,0.4354,0.4353,0.4344,0.4346,0.4346,0.4377,0.4336,0.4337,0.4338,0.4338,0.4447,0.4449,0,0,0,0,0,0,0.44,0.4397,0.441,0.4409,0.4385,0.4375,0.4373,0.4378,0.4363,0.4359,0.4355,0.4351,0.4345,0.4345,0.4346,0.4401,0.4337,0.4338,0.4339,0.4445,0.4448,0.445,0,0,0,0,0,0,0.4399,0.4401,0.441,0.4402,0.4402,0.4378,0.4384,0.4379,0.4381,0.4361,0.4356,0.4362,0.4343,0.4344,0.4371,0.44,0.4339,0.434,0.4443,0.4446,0.4449,0.4512,0,0,0,0,0,0,0.4399,0.4401,0.4418,0.4403,0.4403,0.4435,0.4386,0.438,0.4384,0.4378,0.4366,0.4362,0.4342,0.4369,0.4372,0.4401,0.4341,0.444,0.4444,0.4448,0.4507,0.4517,0.4525,0,0,0,0,0,0.4399,0.4437,0.4419,0.4421,0.4423,0.4437,0.4437,0.4412,0.4386,0.4404,0.439,0.4363,0.4396,0.4372,0.4375,0.4405,0.4438,0.4443,0.4448,0.4503,0.4515,0.4525,0,0,0,0,0,0,0.4457,0.4434,0.4415,0.4449,0.4445,0.4427,0.4449,0.4425,0.4429,0.4424,0.4393,0.4391,0.4423,0.4416,0.439,0.445,0.4412,0.4418,0.4454,0.4465,0.4474,0.4476,0.4342,0,0,0,0,0,0.4474,0.4486,0.4465,0.4497,0.4496,0.4473,0.4478,0.4459,0.4454,0.4453,0.4441,0.4439,0.4449,0.4456,0.4464,0.4505,0.4503,0.4527,0.4536,0.4544,0.455,0.4573,0.4585,0.4466,0.4465,0.4465,0,0,0.4509,0.4498,0.4507,0.4509,0.4504,0.4519,0.4472,0.4489,0.45,0.4455,0.4481,0.4472,0.4467,0.4502,0.4517,0.4498,0.4582,0.455,0.4556,0.4558,0.4579,0.4591,0.4601,0.4469,0.4468,0.4468,0,0,0.4581,0.4572,0.4599,0.4595,0.4588,0.4572,0.4579,0.4565,0.4558,0.4582,0.4549,0.4562,0.4579,0.4578,0.4579,0.4651,0.4627,0.4655,0.4703,0.4726,0.4736,0.4744,0.4772,0.4782,0.466,0.466,0.466,0,0.4626,0.4646,0.4616,0.4636,0.4639,0.4598,0.4626,0.4623,0.462,0.4623,0.4601,0.4623,0.4616,0.4651,0.4669,0.4671,0.4679,0.4657,0.4736,0.4744,0.4752,0.4778,0.4789,0.4664,0.4663,0.4663,0.4663,0,0.4702,0.4717,0.4739,0.4737,0.4741,0.4765,0.4741,0.4749,0.4729,0.4716,0.4743,0.4734,0.474,0.4746,0.4727,0.478,0.4768,0.4742,0.4703,0.4767,0.4792,0.4802,0.4669,0.4668,0.4667,0.4666,0,0,0.4812,0.4793,0.4802,0.4801,0.479,0.4801,0.4824,0.4829,0.4838,0.4837,0.4856,0.4872,0.4848,0.485,0.483,0.485,0.4911,0.4821,0.4821,0.4841,0.4971,0.4993,0.5005,0.4894,0.4895,0.4897,0.4972,0,0.4883,0.492,0.4894,0.4936,0.495,0.4912,0.4931,0.4928,0.4916,0.4927,0.4914,0.4927,0.4892,0.4894,0.4912,0.49,0.4937,0.4894,0.4914,0.4915,0.4919,0.5018,0.5041,0.5113,0.4982,0.4983,0.4984,0,0.4971,0.4973,0.5017,0.5004,0.5009,0.5027,0.5031,0.5042,0.5037,0.5027,0.503,0.5005,0.5028,0.4988,0.502,0.4991,0.4998,0.4993,0.4995,0.4998,0.4956,0.5027,0.5135,0.5147,0.4999,0.4997,0.4996,0,0.505,0.5064,0.5092,0.5092,0.5078,0.5092,0.5087,0.508,0.5085,0.5089,0.5093,0.5099,0.5103,0.5109,0.5087,0.506,0.5123,0.5081,0.5117,0.5118,0.5135,0.5135,0.5249,0.5134,0.5134,0.5134,0.5134,0,0.5134,0.5163,0.5128,0.5146,0.5177,0.5148,0.518,0.517,0.5165,0.5181,0.5147,0.5164,0.5133,0.5146,0.5129,0.516,0.5161,0.5156,0.5151,0.516,0.5162,0.5166,0.5162,0.5137,0.5136,0.5135,0.5135,0,0.5229,0.5207,0.5236,0.5219,0.5216,0.524,0.5227,0.5243,0.5229,0.525,0.5253,0.5231,0.5246,0.5224,0.5235,0.5224,0.5267,0.5254,0.5269,0.5266,0.5305,0.5303,0.5429,0.5445,0.5317,0.5319,0.532,0,0.5286,0.5307,0.5293,0.5301,0.5298,0.5311,0.5316,0.5288,0.5295,0.5292,0.531,0.532,0.5328,0.5353,0.5339,0.5348,0.5337,0.538,0.5338,0.5347,0.5341,0.5342,0.5345,0.539,0.5391,0.5392,0.5393,0,0.5389,0.5377,0.5386,0.5391,0.5398,0.5401,0.5402,0.5411,0.5381,0.5391,0.5405,0.5411,0.5423,0.5435,0.5441,0.5437,0.5412,0.5406,0.5416,0.5427,0.5437,0.5435,0.5296,0.5404,0.5403,0.5402,0.5402,0.5401,0.5469,0.5487,0.548,0.5491,0.5488,0.549,0.5505,0.5492,0.5503,0.5511,0.5493,0.5512,0.5508,0.5513,0.5511,0.5526,0.5508,0.5521,0.5525,0.5529,0.5537,0.5431,0.5527,0.5526,0.5526,0.5526,0.5526,0,0.5573,0.5567,0.5577,0.5579,0.5589,0.5561,0.5561,0.5571,0.5588,0.5586,0.5594,0.5611,0.5623,0.5609,0.5619,0.5634,0.5623,0.5638,0.5639,0.5639,0.5551,0.5544,0.5647,0.5647,0.5647,0.5647,0.5647,0.5647,0.5629,0.5659,0.5646,0.5674,0.5668,0.5685,0.5688,0.569,0.5688,0.5708,0.5718,0.5708,0.5702,0.5712,0.5722,0.5718,0.5725,0.5745,0.5737,0.5656,0.5644,0.5633,0.5626,0.5746,0.5746,0.5824,0.5824,0.5825]}]]